EHI
0 0 0 0 0 0 0 0 0 0 0 0 0 0 0 0 0 0 0 0 0 0 0 0 0 0 0 0 0 0 0 0 0 0 0 0 0 0 0 0 0 0 0 0
0 0 0 0 0 0 0 0 0 0 0 0 0 0 0 0 0 0 0 0 0 0 0 0 0 0 0 0 0 0 0 0 0 0 0 0 0 0 0 0 0 0 0 0
0 0 0 0 0 0 0 0 0 0 0 0 0 0 0 0 0 0 0 0 0 0 0 0 0 0 0 0 0 0 0 0 0 0 0 0 0 0 0 0 0 0 0 0
0 0 0 0 0 0 0 0 0 0 0 0 0 0 0 0 0 0 0 0 0 0 0 0 0 0 0 0 0 0 0 0 0 0 0 0 0 0 0 0 0 0 0 0
0 0 0 0 0 0 0 0 0 0 0 0 0 0 0 0 0 0 0 0 0 0 0 0 0 0 0 0 0 0 0 0 0 0 0 0 0 0 0 0 0 0 0 0
0 0 0 0 0 0 0 0 0 0 0 0 0 0 0 0 0 0 0 0 0 0 0 0 0 0 0 0 0 0 0 0 0 0 0 0 0 0 0 0 0 0 0 0
0 0 0 0 0 0 0 0 0 0 0 0 0 0 0 0 0 0 0 0 0 0 0 0 0 0 0 0 0 0 0 0 0 0 0 0 0 0 0 0 0 0 0 0
0 0 0 0 0 0 0 0 0 0 0 0 0 0 0 0 0 0 0 0 0 0 0 0 0 0 0 0 0 0 0 0 0 0 0 0 0 0 0 0 0 0 0 0
0 0 0 0 0 0 0 0 0 0 0 0 0 0 0 0 0 0 0 0 0 0 0 0 0 0 0 0 0 0 0 0 0 0 0 0 0 0 0 0 0 0 0 0
0 0 0 0 0 0 0 0 0 0 0 0 0 0 0 0 0 0 0 0 0 0 0 0 0 0 0 0 0 0 0 0 0 0 0 0 0 0 0 0 0 0 0 0
0 0 0 0 0 0 0 0 0 0 0 0 0 0 0 0 0 0 0 0 0 0 0 0 0 0 0 0 0 0 0 0 0 0 0 0 0 0 0 0 0 0 0 0
0 0 0 0 0 0 0 0 0 0 0 0 0 0 0 0 0 0 0 0 0 0 0 0 0 0 0 0 0 0 0 0 0 0 0 0 0 0 0 0 0 0 0 0
0 0 0 0 0 0 0 0 0 0 0 0 0 0 0 0 0 0 0 0 0 0 0 0 0 0 0 0 0 0 0 0 0 0 0 0 0 0 0 0 0 0 0 0
0 0 0 0 0 0 0 0 0 0 0 0 0 0 0 0 0 0 0 0 0 0 0 0 0 0 0 0 0 0 0 0 0 0 0 0 0 0 0 0 0 0 0 0
0 0 0 0 0 0 0 0 0 0 0 0 0 0 0 0 0 0 0 0 0 0 0 0 0 0 0 0 0 0 0 0 0 0 0 0 0 0 0 0 0 0 0 0
0 0 0 0 0 0 0 0 0 0 0 0 0 0 0 0 0 0 0 0 0 0 0 0 0 0 0 0 0 0 0 0 0 0 0 0 0 0 0 0 0 0 0 0
0 0 0 0 0 0 0 0 0 0 0 0 0 0 0 0 0 0 0 0 0 0 0 0 0 0 0 0 0 0 0 0 0 0 0 0 0 0 0 0 0 0 0 0
0 0 0 0 0 0 0 0 0 0 0 0 0 0 0 0 0 0 0 0 0 0 0 0 0 0 0 0 0 0 0 0 0 0 0 0 0 0 0 0 0 0 0 0
0 0 0 0 0 0 0 0 0 0 0 0 0 0 0 0 0 0 0 0 0 0 0 0 0 0 0 0 0 0 0 0 0 0 0 0 0 0 0 0 0 0 0 0
0 0 0 0 0 0 0 0 0 0 0 0 0 0 0 0 0 0 0 0 0 0 0 0 0 0 0 0 0 0 0 0 0 0 0 0 0 0 0 0 0 0 0 0
0 0 0 0 0 0 0 0 0 0 0 0 0 0 0 0 0 0 0 0 0 0 0 0 0 0 0 0 0 0 0 0 0 0 0 0 0 0 0 0 0 0 0 0
0 0 0 0 0 0 0 0 0 0 0 0 0 0 0 0 0 0 0 0 0 0 0 0 0 0 0 0 0 0 0 0 0 0 0 0 0 0 0 0 0 0 0 0
0 0 0 0 0 0 0 0 0 0 0 0 0 0 0 0 0 0 0 0 0 0 0 0 0 0 0 0 0 0 0 0 0 0 0 0 0 0 0 0 0 0 0 0
0 0 0 0 0 0 0 0 0 0 0 0 0 0 0 0 0 0 0 0 0 0 0 0 0 0 0 0 0 0 0 0 0 0 0 0 0 0 0 0 0 0 0 0
0 0 0 0 0 0 0 0 0 0 0 0 0 0 0 0 0 0 0 0 0 0 0 0 0 0 0 0 0 0 0 0 0 0 0 0 0 0 0 0 0 0 0 0
0 0 0 0 0 0 0 0 0 0 0 0 0 0 0 0 0 0 0 0 0 0 0 0 0 0 0 0 0 0 0 0 0 0 0 0 0 0 0 0 0 0 0 0
Wind_Speed
3 5 2 3 3 3 3 3 1 2 1 1 3 3 4 5 5 6 5 5 5 5 3 3 4 5 5 5 5 5 6 4 4 3 3 2 2 2 3 3 4 4 4 4
5 1 2 2 2 3 3 3 1 1 1 1 1 2 3 5 7 8 8 8 7 5 4 4 4 4 5 5 5 5 5 5 3 2 2 2 2 1 1 2 4 5 4 4
3 2 1 3 2 3 1 3 3 2 1 3 2 2 2 3 4 5 6 7 7 9 9 7 6 5 5 6 6 6 5 5 4 3 3 3 3 3 3 3 3 4 4 4
1 2 1 2 2 3 1 2 4 4 3 1 1 2 5 4 4 6 8 8 8 8 8 7 7 6 6 6 5 5 5 5 4 4 4 4 3 2 1 1 2 3 5 4
1 1 2 2 2 4 3 2 4 3 3 1 0 1 7 2 6 9 10 11 10 9 9 9 9 8 7 6 5 5 5 4 4 4 5 4 3 2 1 2 3 3 4 5
2 1 1 2 1 3 5 6 6 5 4 1 3 3 6 5 9 9 10 11 11 10 10 9 7 6 6 5 5 5 6 4 4 4 4 5 5 4 3 2 2 2 2 3
2 1 0 2 3 3 4 6 3 3 2 4 2 3 9 7 8 11 12 12 12 10 10 9 8 8 8 7 7 6 6 5 4 5 4 4 5 5 4 3 2 2 1 2
2 3 2 2 5 5 3 6 6 4 3 4 2 6 8 5 5 6 8 10 11 10 10 10 10 10 10 9 8 7 7 6 5 5 5 4 4 3 2 3 3 2 1 1
5 4 2 1 2 8 5 3 5 5 2 2 5 6 8 3 2 2 5 9 12 13 12 11 10 10 10 10 9 9 8 6 6 6 5 4 4 4 3 3 3 2 1 2
7 2 1 0 4 3 4 7 5 4 3 3 5 4 5 4 3 2 5 9 11 11 11 10 10 10 10 9 8 8 8 8 6 6 5 4 4 4 4 4 4 3 2 2
5 4 1 1 4 5 4 3 4 4 3 3 3 7 6 5 4 4 6 7 9 11 12 11 10 9 9 8 8 8 7 6 6 6 5 5 4 4 4 4 4 4 3 3
5 5 2 3 2 3 5 6 7 4 3 3 2 8 5 4 4 3 5 6 7 9 9 10 10 9 9 9 9 9 8 7 7 6 6 5 4 5 4 4 4 4 4 3
7 6 3 2 3 0 2 4 4 5 4 4 4 8 4 2 2 2 4 5 6 8 8 8 8 10 10 10 9 9 8 8 7 7 7 6 5 5 5 4 4 4 4 4
8 5 6 8 6 5 4 4 6 6 4 5 8 9 9 6 5 4 3 4 5 7 9 9 9 9 10 9 9 9 8 7 7 7 7 7 6 6 5 5 5 4 5 5
6 5 5 5 4 4 5 6 7 8 8 9 8 8 11 8 6 5 4 4 6 7 9 11 11 10 9 9 9 9 8 8 8 8 8 7 6 6 5 5 5 4 4 4
5 5 4 2 3 4 4 6 7 9 7 8 7 11 9 6 4 3 4 6 7 9 11 11 11 11 11 11 11 9 9 9 9 9 8 7 7 6 6 6 5 5 4 4
5 6 5 3 1 1 6 9 10 7 7 8 11 12 5 4 5 6 7 8 9 10 10 11 12 13 13 12 12 12 11 9 9 8 8 7 8 7 7 6 6 5 5 4
8 6 4 3 2 6 9 5 8 8 9 9 9 8 7 8 6 5 6 7 8 9 10 11 10 10 10 10 10 9 9 10 9 9 8 8 8 8 7 6 6 5 4 4
6 8 5 4 3 6 8 4 6 6 7 8 10 10 7 4 1 4 6 7 9 9 9 9 10 9 9 10 11 11 10 10 10 10 10 9 9 9 8 8 7 5 5 4
3 4 5 4 4 6 8 4 3 3 6 7 8 9 5 5 2 6 4 4 5 6 6 6 7 7 9 10 11 12 11 11 12 12 11 10 10 10 10 9 7 4 5 5
4 3 4 5 4 8 8 3 5 4 8 4 5 6 5 7 7 5 2 2 4 5 5 7 8 8 9 11 12 12 11 12 11 9 9 9 9 9 9 7 6 6 5 5
8 7 6 5 4 9 4 5 7 8 3 2 3 4 5 5 4 2 2 2 2 3 5 7 8 7 7 10 12 12 12 10 8 9 9 9 9 8 7 8 6 6 7 6
6 8 7 9 8 6 3 5 5 2 3 3 3 3 4 3 3 3 2 2 2 3 4 5 7 7 7 9 11 12 9 9 10 10 9 8 8 7 8 9 8 6 6 5
3 2 3 3 6 5 4 4 3 2 3 3 3 3 3 4 3 2 2 2 2 3 4 5 7 8 7 8 8 8 9 10 10 10 8 8 8 7 6 6 7 7 7 6
4 4 3 4 5 3 4 3 3 2 1 1 1 1 3 3 2 3 2 3 3 3 4 5 6 7 7 7 7 7 9 11 10 9 8 8 7 8 7 6 5 7 7 8
4 6 6 6 5 4 4 3 2 1 1 1 1 1 1 2 3 3 2 2 3 3 4 5 5 5 6 7 7 7 9 10 11 8 8 7 6 6 6 6 3 2 4 7
Wind_Direction
45 70 120 191 173 154 136 132 166 237 279 166 207 218 198 171 167 173 180 189 197 197 179 155 152 142 130 124 124 128 128 131 125 105 93 81 55 23 22 24 30 35 41 47
47 14 228 172 150 123 121 126 175 324 344 148 205 256 218 190 190 191 185 188 191 177 158 157 152 153 155 150 146 141 144 148 145 122 118 113 106 64 34 11 28 28 35 39
152 243 170 132 123 119 118 164 180 178 23 47 83 314 244 216 192 192 192 190 188 182 178 174 170 171 166 166 169 163 162 157 149 129 107 83 59 38 25 17 15 13 29 41
218 266 128 120 149 142 210 204 153 129 100 350 100 271 270 215 204 204 201 195 192 188 180 178 175 177 182 185 172 158 157 155 152 145 136 130 122 112 61 17 15 23 33 40
252 182 140 156 191 151 168 107 104 103 111 52 339 220 279 194 217 219 209 203 195 189 183 183 184 184 185 177 167 159 151 153 155 153 146 132 122 125 97 63 51 36 30 35
232 253 169 167 93 118 120 76 61 53 70 291 227 201 271 225 215 212 207 204 197 188 185 185 180 174 175 166 159 155 152 157 155 152 148 147 144 137 118 93 73 41 29 29
355 343 282 136 92 57 93 90 48 11 8 257 233 216 251 242 223 210 202 199 195 186 181 178 175 176 176 172 169 163 160 165 163 157 159 161 156 151 149 147 128 102 56 36
158 279 234 179 162 162 157 138 154 187 222 276 260 237 257 265 257 223 201 186 180 179 182 183 185 182 179 178 174 167 170 172 168 166 167 160 155 151 151 151 139 137 125 93
172 241 280 196 154 138 136 164 162 135 170 261 270 281 298 297 316 211 183 174 180 183 183 186 187 184 180 179 180 176 173 172 170 167 155 153 155 154 152 146 136 131 126 109
156 189 285 134 90 55 143 143 113 126 156 262 291 277 263 289 283 241 192 188 188 185 183 182 184 186 183 181 177 171 173 176 169 162 161 159 159 156 147 138 140 136 126 106
140 147 309 100 176 171 127 123 119 123 153 165 282 278 234 234 243 231 220 203 189 185 183 183 184 184 177 170 167 169 173 166 163 163 158 152 154 146 139 142 148 142 130 124
147 127 195 249 256 186 166 169 150 154 206 182 202 270 264 231 240 230 223 212 196 187 184 182 176 172 170 172 171 173 175 172 171 165 155 155 147 141 143 147 146 139 133 130
146 125 107 358 346 157 180 177 168 141 137 169 199 265 291 303 287 249 218 209 194 178 172 171 169 174 176 176 175 175 177 176 166 158 153 150 151 153 156 156 149 143 135 126
126 129 161 189 210 190 197 192 168 147 170 210 225 254 286 296 288 273 233 207 187 175 173 174 176 180 180 176 175 176 177 170 162 159 157 161 167 166 162 156 149 146 142 137
130 162 197 217 211 183 205 204 187 193 199 207 235 243 259 262 255 248 219 196 182 178 180 182 181 181 178 174 175 175 173 167 164 162 166 172 165 155 149 149 148 142 142 146
145 162 174 238 227 211 238 234 213 217 217 225 246 261 254 249 238 235 217 202 197 192 189 187 183 180 181 181 178 174 174 171 165 168 172 163 154 153 155 154 147 141 141 138
157 144 150 232 260 166 259 229 211 212 210 199 225 243 249 253 242 228 218 206 204 201 192 188 187 186 186 185 179 179 177 167 166 169 166 161 159 159 162 156 150 153 154 145
152 145 147 159 128 238 245 232 209 215 231 216 228 241 230 233 241 242 224 209 211 203 194 191 189 187 183 177 175 170 159 163 169 170 168 165 162 162 158 155 160 160 150 151
154 142 138 147 204 270 284 252 194 201 250 225 227 243 241 225 255 278 236 209 208 204 195 189 185 180 173 172 168 158 162 167 172 177 176 173 167 163 162 166 167 161 152 154
107 126 133 147 175 239 252 253 187 136 272 245 216 233 222 151 185 261 249 213 208 195 184 175 164 157 166 170 161 162 169 174 184 185 180 173 169 168 172 173 165 156 155 157
127 132 154 166 204 255 253 242 129 166 245 247 203 215 188 184 209 235 216 206 196 181 171 160 159 167 174 166 163 168 174 188 188 172 164 165 170 172 168 161 155 150 147 140
167 163 174 155 192 250 243 152 184 219 255 264 229 213 194 209 227 235 221 211 187 161 151 154 162 169 164 162 166 172 185 183 160 157 162 167 167 167 160 151 150 149 148 146
187 185 180 185 210 237 209 207 231 225 247 254 236 232 192 202 217 208 216 211 186 181 164 156 157 155 159 169 171 177 179 157 153 158 165 164 161 160 155 156 155 152 155 158
237 162 154 221 255 261 260 262 273 239 226 247 240 232 181 193 203 196 183 175 174 170 161 150 147 153 165 172 175 172 154 152 154 161 162 159 158 157 154 156 161 164 170 172
205 164 171 231 262 292 291 264 261 271 255 255 281 200 182 171 176 180 177 175 173 153 149 148 156 162 167 166 164 153 150 151 155 159 159 160 161 160 160 164 175 179 188 185
199 178 175 216 220 195 243 267 249 214 273 260 79 36 47 143 162 157 163 156 144 141 139 141 144 148 155 156 155 152 153 154 153 156 160 161 159 159 159 158 152 183 181 193